Simultaneous Nadir Overpasses (SNOs) Predictions

Prediction of SNOs between METOP-A and NOAA-19 Satellite Orbit:

Table of predicted SNOs for the next 14.0 days since TLE Epoch: 9/15/2015
Index Date (METOP-A) Time (METOP-A) Lat,Lon (METOP-A) SZA (METOP-A ) Date (NOAA-19) Time (NOAA-19) Lat,Lon (NOAA-19) SZA (NOAA-19 ) Distance(km) Time Diff (sec)
1 09/19/2015 00:57:55 -75.37, -16.85 106.38 09/19/2015 00:56:43 -75.41, -16.85 106.35 3.79 72
2 09/19/2015 01:48:35 75.37, 150.48 73.64 09/19/2015 01:47:44 75.39, 150.44 73.66 2.61 51
3 09/19/2015 02:39:17 -75.35, -42.25 106.38 09/19/2015 02:38:44 -75.34, -42.14 106.39 3.51 33
4 09/19/2015 03:29:57 75.35, 125.08 73.64 09/19/2015 03:29:46 75.37, 125.00 73.66 2.96 11
5 09/19/2015 04:20:39 -75.33, -67.66 106.37 09/19/2015 04:20:46 -75.32, -67.58 106.39 2.79 7
6
